Regional Weather Roundup
Issued by NWS

Home | Current Version | Previous Version | Graphics & Text | Print | Product List | Glossary On
Versions: 1 2 3 4 5 6 7 8 9 10 11 12 13 14 15 16 17 18 19 20 21 22 23 24 25 26 27 28 29 30 31 32 33 34 35 36 37 38 39 40 41 42 43 44 45 46 47 48 49 50
000
ASUS43 KIND 210809
RWRIN

WEATHER ROUNDUP FOR INDIANA
NATIONAL WEATHER SERVICE INDIANAPOLIS IN
400 AM EDT TUE OCT 21 2014

NOTE: "FAIR" INDICATES FEW OR NO CLOUDS BELOW 12,000 FEET WITH NO
SIGNIFICANT WEATHER AND/OR OBSTRUCTIONS TO VISIBILITY.

* - STATION DOES NOT REPORT WEATHER SUCH AS PRECIPITATION OR FOG.

+ - STATION NOT QUALITY CONTROLLED BY THE NATIONAL WEATHER SERVICE.
    USE DATA WITH CAUTION...ESPECIALLY DEWPOINT AND RELATIVE
    HUMIDITY OBSERVATIONS.

INZ001>003-010>013-019-020-210900-
NORTHWEST INDIANA

CITY           SKY/WX    TMP DP  RH WIND       PRES   REMARKS
GARY /AIRPORT/ CLOUDY    54  45  70 N10G18    30.01S
KNOX *+        CLOUDY    49  44  81 N6        29.98S
LA PORTE +     CLOUDY    50  47  91 NW5       29.99S
MICHIGAN CITY+ LGT RAIN  50  43  76 N7        29.99S
MONTICELLO +   CLOUDY    47  46  95 CALM      29.99R
RENSSELAER +   CLOUDY    48  48 100 NW3       30.00S
VALPARAISO     CLOUDY    50  44  80 VRB7      29.99S

$$

LMZ046-743>745-210900-
SOUTHERN LAKE MICHIGAN

STATION/POSITION TIME  TEMP WIND        PRES
                       AIR  DIR/SP/G
                 (UTC) (F)  (DEG/KT/KT) (MB)
MICHIGAN CITY    0800   52  340/ 19/ 22   N/A

$$

INZ004-005-014>016-021>024-210900-
NORTH CENTRAL INDIANA

CITY           SKY/WX    TMP DP  RH WIND       PRES   REMARKS
GOSHEN         CLOUDY    49  42  77 N9        29.96S
LOGANSPORT +   CLOUDY    48  43  81 NW5       29.98S
PERU/GRISSOM   CLOUDY    50  50 100 NW7       29.97R
ROCHESTER +    MOCLDY    52  46  82 N8        29.98R
SOUTH BEND     CLOUDY    49  45  86 N7        29.98S
WARSAW +       CLOUDY    46  43  87 NW6       29.96S

$$

INZ006>009-017-018-025>027-210900-
NORTHEAST INDIANA

CITY           SKY/WX    TMP DP  RH WIND       PRES   REMARKS
ANGOLA *+      CLOUDY    46  43  87 N7        29.94S
AUBURN +       MOCLDY    46  41  81 NW7       29.95S
FORT WAYNE     MOCLDY    47  42  83 NW8       29.95S
HUNTINGTON +   MOCLDY    47  42  82 NW5       29.95S

$$

INZ028-029-035-036-043>045-051>053-210900-
WEST CENTRAL INDIANA

CITY           SKY/WX    TMP DP  RH WIND       PRES   REMARKS
GREENCASTLE +  MOCLDY    46  45  93 CALM      29.99S
LAFAYETTE      PTCLDY    43  42  97 NW5       29.99S
TERRE HAUTE    CLOUDY    47  45  93 NW3       30.00R

$$

INZ030>032-037>040-046>048-054>057-064-065-210900-
CENTRAL INDIANA

CITY           SKY/WX    TMP DP  RH WIND       PRES   REMARKS
CP ATTERBURY + MOCLDY    46  45  93 NW3       29.98S
FRANKFORT +    MOCLDY   N/A N/A N/A W5        30.00S FOG
GREENWOOD *+   CLOUDY    48  43  81 CALM      29.98
INDIANAPOLIS   MOCLDY    47  44  90 NW8       29.98R
-EAGLE CREEK   PTCLDY    49  45  86 NW7       29.97S
KOKOMO *+      CLOUDY    50  45  81 N7        29.97S
MARION +       CLOUDY    48  44  88 NW5       29.97R
MT COMFORT *+  PTCLDY    46  46 100 NW7       29.98R
SHELBYVILLE    PTCLDY    49  45  86 NW7       29.96S
ZIONSVILLE +   PTCLDY    46  42  88 W3        29.98S

$$

INZ033-034-041-042-049-050-058-059-210900-
EAST CENTRAL INDIANA

CITY           SKY/WX    TMP DP  RH WIND       PRES   REMARKS
MUNCIE         CLOUDY    49  46  90 NW7       29.95S

$$

INZ060-061-067>069-081>083-085>088-210900-
SOUTHWEST INDIANA

CITY           SKY/WX    TMP DP  RH WIND       PRES   REMARKS
EVANSVILLE     CLEAR     47  44  90 SW3       30.00S
HUNTINGBURG *+ CLEAR     48  41  76 N5        30.00R
WASHINGTON +   CLEAR     48  44  87 NW6       29.99S

$$

INZ062-063-066-070>080-084-089>092-210900-
SOUTH CENTRAL AND SOUTHEAST INDIANA

CITY           SKY/WX    TMP DP  RH WIND       PRES   REMARKS
BEDFORD +      CLEAR     48  45  87 CALM      29.98
BLOOMINGTON    PTCLDY    45  43  93 CALM      29.98S
NORTH VERNON + CLEAR     48  48 100 W3        29.97R

$$



USA.gov is the U.S. government's official web portal to all federal, state and local government web resources and services.